Content
SEND FEEDBACK

Daily
Averages
Monthly
Summary
United States of America

SPRINGFIELD, SOUTH CAROLINA


Home > North America > United States > South Carolina
Elevation: 30 feet     Latitude: 33 30N     Longitude: 081 17W

WEATHER
 
SELECT A DAY
Number of Records: 137,888;   Date Range: 12/7/08 - 10/18/14
 
SHARE

PRINT THIS DATA

[ ← Previous Day ]
WEATHER ALMANAC - JANUARY 31, 2013
[ Next Day → ]
[ °C ]   °F
Weather ElementAverageHighLow
Temperature47 °F55.4 °F (2:55 pm)35.6 °F (11:55 pm)
Dewpoint28.8 °F48.2 °F (12:35 am)21.2 °F (2:35 pm)
Humidity52.1 %88 % (12:35 am)26 % (2:55 pm)
Barometer30.01 in30.19 in (10:35 pm)29.74 in (12:35 am)
Wind Speed9.2 mph19.6 mph (3:15 pm)
Wind Gust35.7 mph (3:15 am)
Weather ElementAverage
Visibility10 mi
Wind DirectionSSW (208.5 °)

Weather ElementTotal
Precipitation0.02 in
Heating Degree Days19.5 (Base 65)
Averaged from 71 records on January 31, 2013
WEATHER CONDITIONS BREAKOUT
WIND DIRECTION BREAKOUT
WEATHER BY HOUR - JANUARY 31, 2013
[ °C ]   °F
Local TimeTemperatureDewpointHumidityBarometerVisibilityWind DirectionWind SpeedGust SpeedPrecipitationEventsConditions
12:35 AM51.8 °F48.2 °F88 %29.74 in10.0 miSW (230°)6.9 mph0.01 inOvercast
12:55 AM51.8 °F48.2 °F88 %29.75 in10.0 miWSW (240°)6.9 mph0.01 inMostly Cloudy
1:15 AM51.8 °F48.2 °F88 %29.75 in10.0 miSW (230°)10.4 mphOvercast
1:35 AM53.6 °F46.4 °F77 %29.76 in10.0 miWSW (240°)12.7 mph27.6 mphOvercast
1:55 AM53.6 °F46.4 °F77 %29.76 in10.0 miWSW (250°)11.5 mph20.7 mphMostly Cloudy
2:15 AM51.8 °F46.4 °F82 %29.78 in10.0 miWSW (240°)15.0 mph19.6 mphMostly Cloudy
2:35 AM51.8 °F46.4 °F82 %29.79 in10.0 miWSW (250°)13.8 mph21.9 mphMostly Cloudy
2:55 AM51.8 °F44.6 °F76 %29.81 in10.0 miWest (270°)17.3 mph26.5 mphOvercast
3:15 AM50.0 °F37.4 °F62 %29.83 in10.0 miWest (270°)17.3 mph35.7 mphOvercast
3:35 AM48.2 °F35.6 °F62 %29.85 in10.0 miWest (260°)13.8 mph29.9 mphMostly Cloudy
3:55 AM46.4 °F35.6 °F66 %29.87 in10.0 miWest (270°)15.0 mph32.2 mphPartly Cloudy
4:15 AM46.4 °F33.8 °F62 %29.87 in10.0 miWest (260°)12.7 mph24.2 mphClear
4:35 AM46.4 °F33.8 °F62 %29.88 in10.0 miWest (260°)11.5 mph20.7 mphClear
4:55 AM44.6 °F33.8 °F66 %29.89 in10.0 miWest (260°)11.5 mph17.3 mphClear
5:15 AM44.6 °F32.0 °F61 %29.89 in10.0 miWSW (250°)12.7 mph20.7 mphClear
5:35 AM44.6 °F32.0 °F61 %29.90 in10.0 miWest (260°)9.2 mph19.6 mphClear
5:55 AM44.6 °F32.0 °F61 %29.92 in10.0 miWest (270°)11.5 mph21.9 mphClear
6:15 AM44.6 °F32.0 °F61 %29.93 in10.0 miWest (260°)10.4 mph18.4 mphClear
6:35 AM42.8 °F32.0 °F66 %29.95 in10.0 miWest (280°)18.4 mph25.3 mphClear
6:55 AM42.8 °F28.4 °F57 %29.96 in10.0 miWest (280°)12.7 mph29.9 mphClear
7:15 AM41.0 °F28.4 °F61 %29.97 in10.0 miWest (260°)15.0 mph21.9 mphClear
7:35 AM41.0 °F26.6 °F57 %29.99 in10.0 miWest (260°)10.4 mph16.1 mphClear
7:55 AM41.0 °F26.6 °F57 %30.00 in10.0 miWest (260°)10.4 mph17.3 mphClear
8:15 AM41.0 °F26.6 °F57 %30.01 in10.0 miWest (280°)10.4 mph19.6 mphClear
8:35 AM42.8 °F26.6 °F53 %30.02 in10.0 miWest (270°)11.5 mph24.2 mphClear
8:55 AM42.8 °F28.4 °F57 %30.03 in10.0 miWest (270°)12.7 mph20.7 mphClear
9:15 AM42.8 °F28.4 °F57 %30.03 in10.0 miWest (270°)16.1 mph20.7 mphClear
9:35 AM44.6 °F28.4 °F53 %30.04 in10.0 miWest (270°)9.2 mph18.4 mphClear
9:55 AM44.6 °F28.4 °F53 %30.04 in10.0 miWNW (290°)11.5 mph18.4 mphClear
10:15 AM46.4 °F28.4 °F50 %30.05 in10.0 miWNW (290°)8.1 mph18.4 mphClear
10:35 AM46.4 °F26.6 °F46 %30.05 in10.0 miWest (260°)11.5 mph17.3 mphClear
10:55 AM48.2 °F26.6 °F43 %30.06 in10.0 miWest (260°)10.4 mph18.4 mphClear
11:15 AM48.2 °F26.6 °F43 %30.05 in10.0 miWest (260°)10.4 mph18.4 mphClear
11:35 AM48.2 °F26.6 °F43 %30.06 in10.0 miWest (280°)8.1 mph17.3 mphClear
11:55 AM48.2 °F24.8 °F40 %30.05 in10.0 miWNW (290°)12.7 mph21.9 mphClear
12:15 PM51.8 °F26.6 °F38 %30.05 in10.0 miWest (280°)6.9 mph18.4 mphClear
12:35 PM51.8 °F23.0 °F33 %30.05 in10.0 miWest (270°)13.8 mph20.7 mphClear
12:55 PM51.8 °F23.0 °F33 %30.05 in10.0 miWest (280°)9.2 mph19.6 mphClear
1:15 PM53.6 °F23.0 °F30 %30.04 in10.0 miWest (270°)15.0 mph23.0 mphClear
1:35 PM53.6 °F23.0 °F30 %30.04 in10.0 miWSW (250°)17.3 mph24.2 mphClear
1:55 PM53.6 °F23.0 °F30 %30.04 in10.0 miWNW (290°)12.7 mph23.0 mphClear
2:15 PM53.6 °F23.0 °F30 %30.03 in10.0 miWest (260°)12.7 mph21.9 mphClear
2:35 PM53.6 °F21.2 °F28 %30.03 in10.0 miWest (260°)12.7 mph24.2 mphClear
2:55 PM55.4 °F21.2 °F26 %30.04 in10.0 miWest (270°)16.1 mph24.2 mphClear
3:15 PM53.6 °F21.2 °F28 %30.05 in10.0 miWest (260°)19.6 mph27.6 mphClear
3:35 PM53.6 °F21.2 °F28 %30.05 in10.0 miWest (260°)17.3 mph26.5 mphClear
3:55 PM53.6 °F21.2 °F28 %30.05 in10.0 miWest (280°)13.8 mph20.7 mphClear
4:15 PM53.6 °F21.2 °F28 %30.06 in10.0 miWest (270°)12.7 mph21.9 mphClear
4:35 PM53.6 °F21.2 °F28 %30.06 in10.0 miWest (270°)10.4 mph18.4 mphClear
4:55 PM53.6 °F21.2 °F28 %30.07 in10.0 miWest (270°)13.8 mph19.6 mphClear
5:15 PM53.6 °F21.2 °F28 %30.07 in10.0 miWNW (290°)10.4 mph21.9 mphClear
5:35 PM51.8 °F21.2 °F30 %30.08 in10.0 miWNW (290°)6.9 mphClear
5:55 PM50.0 °F21.2 °F32 %30.09 in10.0 miCalmClear
6:15 PM48.2 °F23.0 °F37 %30.10 in10.0 miCalmClear
6:35 PM48.2 °F23.0 °F37 %30.11 in10.0 miCalmClear
6:55 PM46.4 °F23.0 °F40 %30.12 in10.0 miCalmClear
7:15 PM46.4 °F23.0 °F40 %30.12 in10.0 miWest (270°)4.6 mphClear
7:35 PM44.6 °F24.8 °F46 %30.12 in10.0 miCalmClear
7:55 PM44.6 °F24.8 °F46 %30.13 in10.0 miCalmClear
8:15 PM42.8 °F26.6 °F53 %30.13 in10.0 miCalmClear
8:35 PM42.8 °F26.6 °F53 %30.15 in10.0 miCalmClear
8:55 PM41.0 °F26.6 °F57 %30.15 in10.0 miCalmClear
9:15 PM41.0 °F26.6 °F57 %30.16 in10.0 miWSW (240°)3.5 mphClear
9:35 PM39.2 °F26.6 °F61 %30.17 in10.0 miWSW (240°)3.5 mphClear
9:55 PM39.2 °F26.6 °F61 %30.17 in10.0 miSW (230°)3.5 mphClear
10:15 PM39.2 °F26.6 °F61 %30.18 in10.0 miCalmClear
10:35 PM39.2 °F26.6 °F61 %30.19 in10.0 miCalmClear
10:55 PM37.4 °F28.4 °F70 %30.19 in10.0 miCalmClear
11:15 PM37.4 °F26.6 °F65 %30.19 in10.0 miCalmClear
11:35 PM37.4 °F26.6 °F65 %30.19 in10.0 miCalmClear
11:55 PM35.6 °F28.4 °F75 %30.19 in10.0 miCalmClear
Hourly data recorded from KBNL, located miles away from Springfield, South Carolina







STORIES FROM OUR PARTNERS